Location: *
(49.1500°N, 12.7667°E)
Time: 23:46:38
(UTC+00:00)

Daily predictions for brighter satellites

Satellite Brightness Start Highest point End
(mag) Time Altitude Azimuth Time Altitude Azimuth Time Altitude Azimuth
Cosmos 1544 4.0 17:41:59 10° SSE 17:45:00 26° E 17:48:05 10° NNE
Cosmos 1025 Rocket 3.0 17:41:09 10° N 17:45:24 62° ENE 17:49:38 10° SSE
Cosmos 1536 Rocket 3.5 17:42:02 10° N 17:46:23 75° E 17:50:42 10° SSE
Okean 2 4.3 17:42:57 10° NNW 17:46:58 54° W 17:50:58 10° S
IRS-1A Rocket 4.4 17:41:22 10° SSE 17:46:59 61° ENE 17:52:31 10° N
USA 186 3.3 17:46:10 10° ESE 17:48:51 22° ENE 17:51:34 10° NNE
BREEZE-M DEB (TANK) 4.5 17:46:59 10° WNW 17:51:27 78° SSW 18:09:20 10° ESE
Lacrosse 4 Rocket 4.2 17:48:47 10° WNW 17:51:28 17° WSW 17:54:08 10° SSW
NOSS 0 Rocket 4.3 17:45:35 10° NNW 17:51:37 50° NE 17:57:38 10° SE
GEOS 3 Rocket 3.6 17:46:40 10° SE 17:51:47 86° NE 17:56:57 10° NW
Nadezhda 1 Rocket 4.2 17:47:22 10° SSE 17:53:06 46° E 17:58:52 10° NNE
USA 32 4.1 17:48:56 10° N 17:54:13 87° W 17:59:27 10° S
YAOGAN 1 3.5 17:50:41 10° S 17:54:54 54° W 17:59:11 10° NNW
Cosmos 2333 Rocket 2.2 17:49:40 10° NNW 17:55:24 76° ENE 18:01:08 10° SSE
Cosmos 389 Rocket 3.8 17:56:30 10° NNE 17:59:10 21° ENE 18:01:48 10° ESE
Timation 2 Rocket 4.0 17:53:41 10° SSW 18:00:12 67° ESE 18:06:29 10° NE
DMSP B5D1-3 4.5 17:56:30 10° NNE 18:01:38 77° ESE 18:06:43 10° S
Cosmos 2237 Rocket 2.8 17:59:57 10° NNW 18:05:23 42° NE 18:10:40 10° ESE
Ariane Rocket 3.1 18:02:15 10° SSE 18:07:19 84° WSW 18:12:27 10° NNW
NOSS 3-4 (A) 3.9 18:01:20 10° NW 18:08:14 73° NE 18:15:49 10° SE
NOSS 3-4 (C) 3.9 18:01:26 10° NW 18:08:20 73° NE 18:15:55 10° SE
Cosmos 1441 Rocket 3.3 18:06:45 10° S 18:10:27 50° E 18:14:09 10° NNE
CZ-4 R/B 3.8 18:09:28 10° SSW 18:12:43 25° W 18:16:02 10° NW
COSMO-SKYMED 1 4.4 18:09:19 10° N 18:13:18 36° WNW 18:17:16 10° SW
Cosmos 1461 2.7 18:10:28 10° SSW 18:14:27 69° SE 18:18:24 10° NE
Cosmos 1980 4.0 18:09:04 10° NNW 18:14:35 50° NE 18:19:42 12° SE
Cosmos 614 Rocket 4.5 18:10:51 10° NNW 18:15:51 43° ENE 18:20:17 13° SE
Cosmos 407 Rocket 3.9 18:12:10 10° NNW 18:17:06 45° ENE 18:21:32 13° SE
CZ-2C R/B 4.2 18:13:58 13° ESE 18:17:38 26° ENE 18:22:08 10° N
NOSS 3-3 (A) 4.1 18:12:36 10° SW 18:18:37 84° NW 18:25:26 10° NE
NOSS 3-3 (C) 4.1 18:12:42 10° SW 18:18:43 85° NW 18:25:33 10° NE
Cosmos 1300 Rocket 4.2 18:14:40 10° SSW 18:18:55 59° WNW 18:23:12 10° N
Meteor 1-4 Rocket 3.6 18:16:27 10° N 18:19:31 26° ENE 18:21:20 17° ESE
Cosmos 2151 Rocket 4.3 18:16:09 10° SSW 18:20:30 59° WNW 18:24:53 10° N
Cosmos 1674 4.4 18:19:29 10° NNE 18:21:43 15° ENE 18:22:23 14° ENE
COSMOS 2455 4.0 18:16:04 10° NW 18:21:45 44° WSW 18:27:23 10° S
HJ-1C 3.8 18:20:49 10° S 18:24:10 64° W 18:27:33 10° NNW
CZ-2C R/B 3.8 18:23:03 10° NNE 18:27:26 51° E 18:31:44 10° S
Cosmos 2341 Rocket 4.1 18:23:40 10° N 18:29:52 58° ENE 18:35:58 10° SSE
Cosmos 1707 2.6 18:27:56 10° N 18:31:53 74° E 18:35:47 10° SSE
USA 234 4.1 18:27:18 10° ENE 18:33:32 48° N 18:39:46 10° W
Cosmos 2181 Rocket 4.4 18:28:39 10° SSE 18:34:23 40° E 18:40:13 10° NNE
SL-16 R/B 3.2 18:30:06 10° NNW 18:35:08 31° NE 18:38:14 19° E
SJ-6B 2.8 18:32:29 10° SSE 18:36:36 71° ENE 18:40:41 10° N
ADEOS Rocket 3.8 18:30:06 10° NNE 18:37:00 43° E 18:44:15 10° SSE
SPOT 3 Rocket 3.5 18:32:08 10° SSE 18:37:15 73° ENE 18:42:24 10° NNW
Aureole 1 Rocket 4.5 18:32:52 10° NNW 18:37:58 42° WSW 18:41:53 10° S
Cosmos 1455 Rocket 3.8 18:39:19 19° SE 18:41:42 31° E 18:45:38 10° NNE
Cosmos 2219 Rocket 2.9 18:37:00 10° NW 18:42:25 52° WSW 18:47:49 10° S
Cosmos 1140 Rocket 3.7 18:39:25 10° NNW 18:44:30 51° ENE 18:47:29 23° SE
COSMOS 2428 3.6 18:40:43 10° NW 18:46:10 48° WSW 18:51:35 10° S
FREGAT/IRIS 3.9 18:46:12 10° S 18:48:51 37° W 18:51:31 10° NNW
Cosmos 2218 Rocket 4.2 18:43:37 10° N 18:49:51 51° ENE 18:54:16 19° SE
Cosmos 2154 Rocket 4.4 18:45:09 10° NNW 18:51:17 65° W 18:57:23 10° S
ATLAS 2AS CENTAUR R/B 3.5 18:44:18 10° NW 18:51:46 55° WSW 18:58:37 10° SSE
CZ-4C R/B 4.4 18:48:06 10° WNW 18:52:51 24° N 18:58:16 10° NE
Cosmos 2366 rocket 4.2 18:48:35 10° N 18:54:48 52° ENE 18:58:54 21° SE
CZ-2C R/B 4.2 18:52:35 10° NE 18:55:22 18° ENE 18:55:22 18° ENE
Cosmos 1371 Rocket 4.0 18:52:28 10° S 18:57:39 58° ESE 19:02:55 10° NNE
Cosmos 1766 4.4 18:59:50 26° ENE 18:59:50 26° ENE 19:02:20 10° NNE
Cosmos 1626 Rocket 4.4 18:55:22 10° N 18:59:14 30° ENE 18:59:38 30° E
SL-08 RB Rocket 3.8 18:57:19 27° SE 18:59:45 59° ENE 19:04:22 10° N
Resurs 1-3 3.5 19:00:34 29° SSE 19:02:45 67° ENE 19:07:08 10° N
Okean 1 Rocket 4.0 18:58:39 10° SSW 19:02:50 48° WNW 19:07:06 10° N
ASTEX 1 3.7 18:58:37 10° N 19:03:29 67° W 19:08:19 10° SSW
SL-8 Rocket 3.9 18:59:28 10° N 19:05:43 75° E 19:10:33 17° SSE
Resurs 01 Rocket 1.7 19:05:43 36° SE 19:07:17 58° ENE 19:11:40 10° N
H-2A R/B 1.9 19:04:22 17° SSE 19:08:15 85° WSW 19:13:20 10° NNW
SL-8 R/B 3.6 19:03:42 10° WSW 19:08:30 80° S 19:10:24 37° E
Cosmos 2227 Rocket 2.4 19:04:39 10° S 19:10:02 47° ESE 19:15:28 10° NE
Cosmos 2219 3.1 19:04:19 10° SSW 19:10:03 77° ESE 19:15:49 10° NNE
Cosmos 676 Rocket 4.0 19:04:50 10° NNW 19:10:07 67° ENE 19:12:17 35° SE
Meteor 2-17 Rocket 4.4 19:04:58 10° N 19:11:07 90° SW 19:16:21 14° S
Meteor 1-15 Rocket 4.2 19:05:21 10° S 19:11:07 87° ESE 19:17:02 10° NNE
ARGOS 3.2 19:12:30 17° S 19:16:44 78° WSW 19:22:09 10° NNW
BREEZE M DEB (TANK) 2.1 19:14:26 10° W 19:16:51 84° N 19:17:51 47° E
Cosmos 1602 Rocket 4.1 19:15:27 10° N 19:19:25 38° ENE 19:19:25 38° ENE
USA 186 3.9 19:16:41 10° SSW 19:19:39 28° W 19:22:41 10° NNW
ERBS 2.9 19:16:33 10° NW 19:19:51 45° NNE 19:19:52 45° NNE
Cosmos 1959 Rocket 4.3 19:13:48 10° N 19:19:58 78° E 19:23:42 25° SSE
Cosmos 2297 Rocket 2.1 19:15:22 10° S 19:20:55 60° ESE 19:26:30 10° NE
Cosmos 1626 4.2 19:18:46 10° NNE 19:20:02 16° NE 19:20:02 16° NE
Cosmos 1437 Rocket 2.5 19:19:21 10° N 19:23:11 70° ENE 19:23:15 70° E
BREEZE-M DEB (TANK) 3.8 19:22:01 10° WNW 19:26:27 83° NNE 19:31:48 28° E
Cosmos 1190 Rocket 4.5 19:21:45 10° NNW 19:26:58 59° WSW 19:30:01 24° S
Cosmos 405 Rocket 2.9 19:26:20 22° SSW 19:28:35 67° WNW 19:32:18 10° N
SPOT 5 4.3 19:30:23 22° NE 19:30:23 22° NE 19:33:56 10° N
Cosmos 389 Rocket 4.4 19:30:58 10° NNW 19:33:56 27° W 19:35:42 18° SW
RESURS DK-1 3.5 19:30:38 10° NNW 19:34:00 31° NE 19:34:00 31° NE
Meteor 1-24 Rocket 3.7 19:31:30 10° N 19:37:17 83° ENE 19:39:26 42° SSE
MetOp-A 4.2 19:37:09 34° S 19:39:34 75° WSW 19:44:58 10° NNW
Cosmos 1850 Rocket 4.2 19:37:09 10° NNW 19:42:14 51° ENE 19:42:32 51° ENE
Cosmos 2237 Rocket 3.3 19:44:10 10° NW 19:49:26 40° WSW 19:52:30 22° SSW
Cosmos 1805 3.9 19:53:34 51° N 19:53:34 51° N 19:56:36 10° N
Meteor 2-5 Rocket 4.4 19:49:45 10° NNW 19:55:25 55° W 19:58:36 26° SSW
Cosmos 2056 Rocket 4.1 19:51:22 10° SW 19:56:44 60° WNW 20:02:07 10° NNE
CZ-2C R/B 3.6 19:55:02 34° SSW 19:57:07 56° W 20:02:33 10° NNW
Cosmos 1674 3.6 19:53:57 10° NNW 19:57:14 46° WNW 19:57:14 46° WNW
Cosmos 1420 Rocket 4.0 20:04:30 70° NE 20:04:30 70° NE 20:09:18 10° NNE
DMSP B5D2-2 4.0 19:59:49 10° NNE 20:05:09 86° WNW 20:06:03 63° SSW
Terra 3.3 20:06:35 26° NE 20:06:35 26° NE 20:09:27 10° N
SPOT 1/Viking Rocket 3.8 20:07:50 56° NE 20:07:50 56° NE 20:12:24 10° N
Cosmos 1934 Rocket 4.3 20:02:44 10° N 20:08:18 47° ENE 20:08:18 47° ENE
Meteor 2-12 Rocket 4.3 20:04:47 10° N 20:10:53 71° ENE 20:11:07 70° E
Cosmos 1741 Rocket 4.0 20:05:51 10° NNW 20:11:02 81° NNE 20:11:02 81° NNE
Cosmos 1603 4.1 20:09:08 10° NNW 20:14:23 49° NE 20:14:23 49° NE
USA 234 3.9 20:13:12 32° ENE 20:15:54 48° N 20:22:08 10° WNW
SL-16 R/B 2.5 20:14:02 10° NW 20:19:36 57° WSW 20:20:07 54° SW
ERS-1 Rocket 3.3 20:20:34 57° NNE 20:20:34 57° NNE 20:24:42 10° N
ADEOS Rocket 4.3 20:15:38 10° N 20:22:31 50° WNW 20:29:50 10° SW
Spot 2 Rocket 4.0 20:23:09 50° WSW 20:23:29 50° W 20:28:24 10° NNW
USA 245 4.4 20:23:59 69° SSW 20:24:40 77° WSW 20:30:32 10° NNW
Nadezhda 3 Rocket 3.8 20:32:10 88° W 20:32:11 88° W 20:38:26 10° N
Cosmos 2082 4.0 20:34:48 51° WSW 20:36:05 66° WNW 20:41:48 10° NNE
CZ-2C R/B 2.8 20:31:44 10° NNE 20:36:52 72° NNW 20:36:52 72° NNW
CZ-4C R/B 4.2 20:37:55 10° NW 20:43:31 29° NNE 20:46:29 22° NE
Resurs 01 Rocket 3.9 20:43:18 17° WSW 20:44:09 18° W 20:47:11 10° NW
Cosmos 1605 Rocket 4.4 20:39:59 10° N 20:45:21 54° NE 20:45:21 54° NE
Cosmos 1821 Rocket 4.2 20:43:15 10° NNW 20:49:20 62° W 20:49:26 62° W
Cosmos 1452 Rocket 4.3 20:52:11 48° NNW 20:52:11 48° NNW 20:56:29 10° NNE
Cosmos 2227 Rocket 3.6 20:49:05 10° WSW 20:54:16 36° NW 20:59:29 10° NNE
Cosmos 2297 Rocket 3.9 21:00:24 10° WSW 21:05:21 30° NW 21:10:19 10° NNE
SPOT 5 4.3 21:09:37 35° NW 21:09:37 35° NW 21:12:40 10° NNW
Cosmos 2263 Rocket 4.3 21:25:00 17° NE 21:25:00 17° NE 21:26:14 10° NE
Cosmos 1943 4.2 21:17:38 10° NNW 21:21:25 43° NW 21:21:25 43° NW
Terra 4.0 21:45:28 22° NW 21:45:28 22° NW 21:47:24 10° NNW
USA 234 3.9 22:00:32 49° NW 22:00:32 49° NW 22:05:10 10° NW
CZ-4C R/B 3.5 22:26:27 10° NW 22:31:37 51° N 22:31:37 51° N
Cosmos 2082 Rocket 4.3 22:31:08 10° N 22:34:54 21° NNE 22:34:54 21° NNE
Cosmos 2263 Rocket 4.1 23:06:41 25° NNW 23:06:41 25° NNW 23:09:56 10° NNE
SJ 16-02 4.5 23:15:28 10° NNE 23:15:52 11° NNE 23:15:52 11° NNE
Cosmos 2278 Rocket 4.5 23:23:20 17° NE 23:23:20 17° NE 23:24:50 10° NE
ATLAS CENTAUR R/B 4.5 23:25:49 16° N 23:25:49 16° N 23:27:07 10° NNE
CZ-2D R/B 4.4 23:47:00 10° NE 23:48:51 17° ENE 23:48:51 17° ENE
ATLAS 5 CENTAUR R/B 4.5 23:56:00 14° NE 23:56:00 14° NE 23:56:45 10° NE
